Location: Mentone
(34.5413°N, 85.5351°W)
Time: 01:29:46
(UTC-05:00)

S-56A Canister/Altair - Visible Passes

Search period start: 26 June 2016 00:00
Search period end: 06 July 2016 00:00
Orbit: 639 x 2495 km, 38.9° (Epoch: 21 June)

Date Brightness Start Highest point End Pass type
(mag) Time Alt. Az. Time Alt. Az. Time Alt. Az.
26 Jun 9.9 01:22:17 10° WNW 01:37:28 84° NNE 01:51:14 10° ESE visible
26 Jun 9.8 03:29:34 10° WNW 03:44:07 58° SW 03:55:38 10° SE visible
26 Jun 9.7 20:37:39 10° SW 20:48:42 75° SSE 21:03:32 10° ENE visible
26 Jun 10.0 22:42:38 10° W 22:55:51 76° N 23:11:10 10° E visible
27 Jun 10.0 00:49:08 10° WNW 01:04:03 81° NNE 01:18:20 10° ESE visible
27 Jun 9.8 02:56:11 10° WNW 03:11:03 64° SW 03:23:17 10° SE visible
27 Jun 9.6 20:05:21 10° SW 20:15:41 69° SSE 20:30:04 10° ENE visible
27 Jun 10.0 22:09:52 10° W 22:22:28 78° N 22:37:50 10° ENE visible
28 Jun 10.0 00:16:05 10° WNW 00:30:36 79° NNE 00:45:19 10° E visible
28 Jun 9.8 02:22:52 10° WNW 02:37:54 69° SSW 02:50:47 10° SE visible
28 Jun 10.3 04:31:31 10° W 04:42:45 28° SW 04:52:06 10° S visible
28 Jun 9.9 21:37:12 10° W 21:49:08 79° NNW 22:04:26 10° ENE visible
28 Jun 10.0 23:43:08 10° WNW 23:57:09 77° N 00:12:11 10° E visible
29 Jun 9.8 01:49:38 10° WNW 02:04:40 74° SSW 02:18:11 10° SE visible
29 Jun 10.2 03:57:42 10° WNW 04:09:58 32° SW 04:20:17 10° S visible
29 Jun 9.8 21:04:38 10° WSW 21:15:54 82° NNW 21:30:59 10° ENE visible
29 Jun 10.0 23:10:14 10° W 23:23:42 76° N 23:38:57 10° E visible
30 Jun 9.8 01:16:30 10° WNW 01:31:22 79° SSW 01:45:27 10° ESE visible
30 Jun 10.1 03:24:03 10° WNW 03:37:05 37° SW 03:48:18 10° SSE visible
30 Jun 9.7 20:32:10 10° WSW 20:42:44 85° NNW 20:57:29 10° ENE visible
30 Jun 10.0 22:37:27 10° W 22:50:17 75° N 23:05:37 10° E visible
01 Jul 9.8 00:43:28 10° WNW 00:58:03 83° SSW 01:12:35 10° ESE visible
01 Jul 10.1 02:50:33 10° WNW 03:04:07 42° SW 03:16:07 10° SSE visible
01 Jul 10.9 05:06:55 10° WSW 05:07:58 10° WSW 05:09:00 10° SW visible
01 Jul 10.0 22:04:45 10° W 22:16:56 74° N 22:32:12 10° E visible
02 Jul 9.8 00:10:31 10° WNW 00:24:40 87° SSW 00:39:37 10° ESE visible
02 Jul 10.0 02:17:11 10° WNW 02:31:05 47° SW 02:43:48 10° SSE visible
02 Jul 10.8 04:29:21 10° W 04:35:18 14° SW 04:40:52 10° SSW visible
02 Jul 9.9 21:32:07 10° W 21:43:37 73° N 21:58:42 10° E visible
02 Jul 9.8 23:37:39 10° WNW 23:51:18 89° NNE 00:05:05 14° ESE visible
03 Jul 9.9 01:43:57 10° WNW 01:57:58 52° SW 02:02:06 43° S visible
03 Jul 10.9 03:54:23 10° W 04:11:13 - SSW 03:59:08 16° WSW visible
03 Jul 9.9 20:59:35 10° W 21:10:23 73° N 21:25:11 10° E visible
03 Jul 9.8 23:04:53 10° WNW 23:17:57 85° NNE 23:30:45 18° ESE visible
04 Jul 9.9 01:10:49 10° WNW 01:24:47 57° SW 01:27:57 50° S visible
04 Jul 10.9 03:20:03 10° W 03:25:11 18° WSW 03:25:11 18° WSW visible
04 Jul 9.8 20:27:08 10° W 20:37:14 73° N 20:51:37 10° E visible
04 Jul 9.8 22:32:11 10° WNW 22:44:37 82° NNE 22:57:45 17° ESE visible
05 Jul 9.9 00:37:49 10° WNW 00:51:35 62° SW 00:55:02 53° S visible
05 Jul 10.9 02:46:07 10° W 02:52:19 21° WSW 02:52:19 21° WSW visible
05 Jul 9.8 21:59:34 10° WNW 22:11:20 80° NNE 22:25:18 13° E visible
